When you browse on this site, cookies collect data to enhance your experience and personalize the content and advertising you see.
Visit our Privacy Policy to learn more. By continuing to use the site, you agree to this use of cookies and data.
  • In Romania
  • List of Countries
  • For 7 days
  • Water Temperature
  • Satellite Maps
  • Weather Map
  • Weather Widgets
  • user-avatar
    Login

    Hourly Weather Arnay-le-Duc

    Today, 19 July, Friday

    Time Temperature Precipitation Wind Pressure Humidity
    00:00 +16°C° 0 mm 2 mps 728 mmHg 85%
    01:00 +16°C° 0 mm 2 mps 728 mmHg 89%
    02:00 +15°C° 0 mm 2 mps 728 mmHg 93%
    03:00 +15°C° 0 mm 2 mps 728 mmHg 97%
    04:00 +16°C° 0 mm 2 mps 728 mmHg 94%
    05:00 +17°C° 0 mm 2 mps 728 mmHg 92%
    06:00 +19°C° 0 mm 1 mps 728 mmHg 88%
    07:00 +19°C° 0 mm 2 mps 728 mmHg 82%
    08:00 +20°C° 0 mm 2 mps 728 mmHg 76%
    09:00 +21°C° 0 mm 2 mps 728 mmHg 70%
    10:00 +24°C° 0 mm 2 mps 728 mmHg 64%
    11:00 +25°C° 0 mm 2 mps 728 mmHg 57%
    12:00 +26°C° 0 mm 2 mps 728 mmHg 51%
    13:00 +27°C° 0 mm 2 mps 728 mmHg 48%
    14:00 +28°C° 0 mm 2 mps 728 mmHg 45%
    15:00 +28°C° 0 mm 2 mps 728 mmHg 42%
    16:00 +28°C° 0 mm 2 mps 727 mmHg 47%
    17:00 +27°C° 0 mm 1 mps 727 mmHg 51%
    18:00 +26°C° 0 mm 1 mps 727 mmHg 56%
    19:00 +24°C° 0 mm 1 mps 727 mmHg 62%
    20:00 +22°C° 0 mm 1 mps 726 mmHg 69%
    21:00 +19°C° 0 mm 1 mps 726 mmHg 75%
    22:00 +19°C° 0 mm 1 mps 726 mmHg 78%
    23:00 +18°C° 0 mm 1 mps 726 mmHg 81%

    Tomorrow, 20 July, Saturday

    Time Temperature Precipitation Wind Pressure Humidity
    00:00 +18°C° 0 mm 1 mps 726 mmHg 84%
    01:00 +18°C° 0 mm 1 mps 726 mmHg 86%
    02:00 +16°C° 0 mm 1 mps 725 mmHg 88%
    03:00 +16°C° 0 mm 1 mps 725 mmHg 91%
    04:00 +17°C° 0 mm 2 mps 725 mmHg 86%
    05:00 +18°C° 0 mm 2 mps 725 mmHg 82%
    06:00 +19°C° 0 mm 2 mps 725 mmHg 77%
    07:00 +21°C° 0 mm 3 mps 726 mmHg 69%
    08:00 +24°C° 0 mm 3 mps 726 mmHg 61%
    09:00 +26°C° 0 mm 3 mps 727 mmHg 53%
    10:00 +27°C° 0 mm 4 mps 727 mmHg 49%
    11:00 +29°C° 0 mm 4 mps 727 mmHg 45%
    12:00 +30°C° 0 mm 4 mps 727 mmHg 41%
    13:00 +30°C° 0 mm 4 mps 727 mmHg 45%
    14:00 +29°C° 0 mm 3 mps 727 mmHg 49%
    15:00 +29°C° 0 mm 3 mps 727 mmHg 53%
    16:00 +28°C° 0.1 mm 2 mps 727 mmHg 58%
    17:00 +27°C° 0.1 mm 2 mps 727 mmHg 64%
    18:00 +26°C° 0.1 mm 2 mps 728 mmHg 70%
    19:00 +24°C° 0.3 mm 1 mps 728 mmHg 76%
    20:00 +22°C° 0.3 mm 1 mps 729 mmHg 83%
    21:00 +20°C° 0.3 mm 1 mps 729 mmHg 89%
    22:00 +20°C° 0 mm 1 mps 729 mmHg 90%
    23:00 +20°C° 0 mm 1 mps 730 mmHg 91%

    Day after tomorrow, 21 July, Sunday

    Time Temperature Precipitation Wind Pressure Humidity
    00:00 +19°C° 0 mm 1 mps 730 mmHg 92%
    01:00 +19°C° 0 mm 1 mps 730 mmHg 93%
    02:00 +19°C° 0 mm 1 mps 730 mmHg 94%
    03:00 +19°C° 0 mm 1 mps 730 mmHg 95%
    04:00 +19°C° 0 mm 1 mps 731 mmHg 92%
    05:00 +19°C° 0 mm 1 mps 731 mmHg 90%
    06:00 +18°C° 0 mm 0 mps 731 mmHg 88%
    07:00 +22°C° 0 mm 1 mps 732 mmHg 78%
    08:00 +24°C° 0 mm 1 mps 732 mmHg 68%
    09:00 +26°C° 0 mm 1 mps 733 mmHg 59%
    10:00 +27°C° 0 mm 1 mps 733 mmHg 52%
    11:00 +28°C° 0 mm 2 mps 733 mmHg 46%
    12:00 +29°C° 0 mm 2 mps 733 mmHg 39%
    13:00 +30°C° 0 mm 2 mps 733 mmHg 38%
    14:00 +30°C° 0 mm 2 mps 733 mmHg 36%
    15:00 +30°C° 0 mm 2 mps 733 mmHg 35%
    16:00 +29°C° 0 mm 2 mps 733 mmHg 40%
    17:00 +28°C° 0 mm 2 mps 732 mmHg 46%
    18:00 +27°C° 0 mm 1 mps 732 mmHg 51%
    19:00 +25°C° 0 mm 1 mps 733 mmHg 56%
    20:00 +22°C° 0 mm 1 mps 733 mmHg 61%
    21:00 +20°C° 0 mm 1 mps 733 mmHg 67%
    22:00 +20°C° 0 mm 1 mps 733 mmHg 71%
    23:00 +19°C° 0 mm 1 mps 733 mmHg 76%

    22 July, Monday

    Time Temperature Precipitation Wind Pressure Humidity
    00:00 +18°C° 0 mm 1 mps 733 mmHg 81%
    01:00 +18°C° 0 mm 1 mps 733 mmHg 82%
    02:00 +18°C° 0 mm 1 mps 733 mmHg 84%
    03:00 +18°C° 0 mm 1 mps 733 mmHg 86%
    04:00 +19°C° 0 mm 1 mps 733 mmHg 82%
    05:00 +20°C° 0 mm 1 mps 733 mmHg 78%
    06:00 +21°C° 0 mm 1 mps 733 mmHg 74%
    07:00 +24°C° 0 mm 1 mps 733 mmHg 65%
    08:00 +26°C° 0 mm 1 mps 733 mmHg 56%
    09:00 +28°C° 0 mm 2 mps 734 mmHg 47%
    10:00 +30°C° 0 mm 2 mps 733 mmHg 43%
    11:00 +31°C° 0 mm 2 mps 733 mmHg 39%
    12:00 +32°C° 0 mm 2 mps 733 mmHg 35%
    13:00 +32°C° 0 mm 2 mps 733 mmHg 34%
    14:00 +34°C° 0 mm 2 mps 733 mmHg 33%
    15:00 +34°C° 0 mm 2 mps 732 mmHg 33%
    16:00 +31°C° 0 mm 2 mps 732 mmHg 38%
    17:00 +30°C° 0 mm 2 mps 732 mmHg 44%
    18:00 +29°C° 0 mm 2 mps 732 mmHg 49%
    19:00 +27°C° 0 mm 2 mps 732 mmHg 55%
    20:00 +25°C° 0 mm 2 mps 732 mmHg 61%
    21:00 +21°C° 0 mm 2 mps 732 mmHg 67%
    22:00 +21°C° 0 mm 2 mps 732 mmHg 69%
    23:00 +20°C° 0 mm 2 mps 731 mmHg 72%

    23 July, Tuesday

    Time Temperature Precipitation Wind Pressure Humidity
    00:00 +19°C° 0 mm 2 mps 731 mmHg 74%
    01:00 +20°C° 0 mm 1 mps 731 mmHg 76%
    02:00 +20°C° 0 mm 1 mps 731 mmHg 78%
    03:00 +19°C° 0 mm 1 mps 730 mmHg 80%
    04:00 +20°C° 0 mm 1 mps 730 mmHg 77%
    05:00 +21°C° 0 mm 1 mps 730 mmHg 75%
    06:00 +21°C° 0 mm 0 mps 730 mmHg 72%
    07:00 +25°C° 0 mm 1 mps 730 mmHg 63%
    08:00 +28°C° 0 mm 1 mps 731 mmHg 54%
    09:00 +31°C° 0 mm 1 mps 731 mmHg 45%
    10:00 +33°C° 0 mm 1 mps 731 mmHg 40%
    11:00 +34°C° 0 mm 1 mps 731 mmHg 35%
    12:00 +34°C° 0 mm 0 mps 730 mmHg 30%
    13:00 +36°C° 0 mm 1 mps 730 mmHg 28%
    14:00 +36°C° 0 mm 1 mps 730 mmHg 27%
    15:00 +37°C° 0 mm 1 mps 729 mmHg 25%
    16:00 +35°C° 0 mm 1 mps 729 mmHg 32%
    17:00 +33°C° 0 mm 1 mps 729 mmHg 38%
    18:00 +32°C° 0 mm 2 mps 729 mmHg 44%
    19:00 +29°C° 0 mm 1 mps 729 mmHg 50%
    20:00 +27°C° 0 mm 1 mps 729 mmHg 57%
    21:00 +25°C° 0 mm 1 mps 729 mmHg 63%
    22:00 +24°C° 0 mm 1 mps 729 mmHg 66%
    23:00 +23°C° 0 mm 1 mps 729 mmHg 69%

    24 July, Wednesday

    Time Temperature Precipitation Wind Pressure Humidity
    00:00 +21°C° 0 mm 0 mps 729 mmHg 72%
    01:00 +21°C° 0 mm 0 mps 728 mmHg 73%
    02:00 +22°C° 0 mm 1 mps 728 mmHg 74%
    03:00 +22°C° 0 mm 1 mps 728 mmHg 75%
    04:00 +23°C° 0 mm 1 mps 728 mmHg 74%
    05:00 +24°C° 0 mm 1 mps 729 mmHg 73%
    06:00 +24°C° 0 mm 1 mps 729 mmHg 72%
    07:00 +27°C° 0 mm 1 mps 729 mmHg 62%
    08:00 +30°C° 0 mm 1 mps 729 mmHg 51%
    09:00 +33°C° 0 mm 1 mps 729 mmHg 41%
    10:00 +35°C° 0 mm 1 mps 729 mmHg 36%
    11:00 +37°C° 0 mm 1 mps 729 mmHg 31%
    12:00 +37°C° 0 mm 0 mps 729 mmHg 26%
    13:00 +40°C° 0 mm 1 mps 729 mmHg 25%
    14:00 +40°C° 0 mm 1 mps 728 mmHg 24%
    15:00 +40°C° 0 mm 2 mps 728 mmHg 23%
    16:00 +38°C° 0 mm 2 mps 728 mmHg 29%
    17:00 +36°C° 0 mm 2 mps 728 mmHg 34%
    18:00 +35°C° 0 mm 2 mps 728 mmHg 39%
    19:00 +31°C° 0 mm 2 mps 728 mmHg 44%
    20:00 +29°C° 0 mm 2 mps 728 mmHg 49%
    21:00 +27°C° 0 mm 1 mps 728 mmHg 54%
    22:00 +26°C° 0 mm 1 mps 728 mmHg 55%
    23:00 +25°C° 0 mm 1 mps 728 mmHg 57%
    Show more